Location: Arrodets-la-Barthe
(43.0306°N, 0.2829°E)
Time: 18:21:20
(UTC+00:00)

COSMOS 2428 - Pass Details

Date: 24 October 2021
Orbit: 845 x 857 km, 70.9° (Epoch: 02 December)

Event Time Altitude Azimuth Distance (km) Brightness Sun altitude
Rises 19:23:11 0° 190° (S) 3,388 5.9 -26.4°
Reaches altitude 10° 19:25:39 10° 186° (S) 2,457 5.1 -26.9°
Enters shadow 19:27:06 18° 182° (S) 1,930 4.5 -27.1°
